Weather History for Casper, WY

Change the Weather History Date:

Friday, July 5, 2013

  Actual Average Record
Temperature  
Mean Temperature 72 °F 69 °F  
Max Temperature 89 °F 86 °F 99 °F (2001)
Min Temperature 55 °F 51 °F 38 °F (1972)
Degree Days  
Heating Degree Days 0 1  
Month to date heating degree days 0 5  
Since 1 June heating degree days 72 141  
Since 1 July heating degree days 0 5  
Cooling Degree Days 7 5  
Month to date cooling degree days 33 22  
Year to date cooling degree days 126 79  
Since 1 June cooling degree days 116 75  
Growing Degree Days 22 (Base 50)    
Moisture  
Dew Point 54 °F    
Average Humidity 63    
Maximum Humidity 100    
Minimum Humidity 25    
Precipitation  
Precipitation 0.06 in 0.04 in 0.27 in (2001)
Month to date precipitation 0.09 0.21  
Year to date precipitation 6.93 7.03  
Snow  
Snow 0.00 in 0.00 in - ()
Month to date snowfall 0.0 0.0  
Since 1 June snowfall 0.0 0.1  
Since 1 July snowfall 0.0 0.0  
Snow Depth 0.00 in    
Sea Level Pressure  
Sea Level Pressure 29.76 in    
Wind  
Wind Speed 10 mph (NW)    
Max Wind Speed 22 mph    
Max Gust Speed 29 mph    
Visibility 10 miles    
Events Rain , Thunderstorm    
T = Trace of Precipitation, MM = Missing Value Source: NWS Daily Summary

Daily Weather History Graph

Daily Weather History Graph

Search for Another Location

Airport:

Trip Planner

Search our weather history database for the weather conditions in past years. The results will help you decide how hot, cold, wet, or windy it might be!

Date:

Astronomy

Jul. 05, 2013 Rise Set
Actual Time 5:33 AM MDT 8:47 PM MDT
Civil Twilight 4:58 AM MDT 9:22 PM MDT
Nautical Twilight 4:13 AM MDT 10:06 PM MDT
Astronomical Twilight 3:18 AM MDT 11:01 PM MDT
Moon 3:36 AM MDT (7/5) 6:43 PM MDT (7/5)
Length of Visible Light 16h 23m
Length of Day
15h 13m
Waning Crescent, 6% of the Moon is Illuminated
Jul 5
Waning Crescent
Jul 8
New
Jul 15
First Quarter
Jul 22
Full
Jul 29
Last Quarter

Hourly Weather History & Observations

Time (MDT) Temp. Dew Point Humidity Pressure Visibility Wind Dir Wind Speed Gust Speed Precip Events Conditions
12:53 AM 62.1 °F 59.0 °F 90% 29.82 in 10.0 mi East 6.9 mph - 0.01 in   Overcast
1:53 AM 61.0 °F 59.0 °F 93% 29.80 in 10.0 mi Calm Calm - 0.00 in   Partly Cloudy
2:53 AM 57.9 °F 57.0 °F 97% 29.78 in 10.0 mi NW 4.6 mph - N/A   Clear
3:53 AM 59.0 °F 57.9 °F 96% 29.77 in 9.0 mi NNW 4.6 mph - N/A   Partly Cloudy
4:53 AM 55.9 °F 55.0 °F 97% 29.77 in 9.0 mi WNW 5.8 mph - N/A   Clear
5:53 AM 55.0 °F 55.0 °F 100% 29.76 in 10.0 mi West 5.8 mph - N/A   Clear
6:53 AM 59.0 °F 57.0 °F 93% 29.76 in 10.0 mi West 5.8 mph - N/A   Clear
7:53 AM 63.0 °F 59.0 °F 87% 29.75 in 10.0 mi WSW 8.1 mph - N/A   Clear
8:53 AM 70.0 °F 57.0 °F 63% 29.73 in 10.0 mi SW 13.8 mph - N/A   Clear
9:53 AM 73.9 °F 55.0 °F 52% 29.73 in 10.0 mi SW 9.2 mph 20.7 mph N/A   Clear
10:53 AM 79.0 °F 55.0 °F 44% 29.71 in 10.0 mi WSW 10.4 mph 16.1 mph N/A   Clear
11:53 AM 84.0 °F 51.1 °F 32% 29.70 in 10.0 mi WNW 11.5 mph 19.6 mph N/A   Clear
12:53 PM 84.0 °F 46.9 °F 27% 29.69 in 10.0 mi West 16.1 mph - N/A   Clear
1:53 PM 86.0 °F 48.9 °F 28% 29.67 in 10.0 mi NW 11.5 mph 19.6 mph N/A   Clear
2:53 PM 82.9 °F 46.9 °F 28% 29.69 in 10.0 mi NW 5.8 mph 20.7 mph N/A   Scattered Clouds
3:53 PM 84.9 °F 46.0 °F 26% 29.67 in 10.0 mi Variable 4.6 mph - N/A   Partly Cloudy
4:53 PM 86.0 °F 46.9 °F 26% 29.65 in 10.0 mi NNE 10.4 mph - N/A   Partly Cloudy
5:53 PM 70.0 °F 57.0 °F 63% 29.76 in 7.0 mi West 12.7 mph 23.0 mph 0.00 in Rain , Thunderstorm Light Thunderstorms and Rain
6:19 PM 73.4 °F 53.6 °F 50% 29.87 in 10.0 mi ENE 18.4 mph 26.5 mph 0.00 in   Scattered Clouds
6:53 PM 75.9 °F 53.1 °F 45% 29.68 in 10.0 mi ENE 11.5 mph - 0.00 in   Clear
7:53 PM 69.1 °F 54.0 °F 58% 29.75 in 10.0 mi NNE 21.9 mph 28.8 mph N/A   Mostly Cloudy
8:05 PM 69.8 °F 55.4 °F 60% 29.93 in 10.0 mi NNE 13.8 mph 23.0 mph N/A   Mostly Cloudy
8:53 PM 66.0 °F 55.0 °F 68% 29.74 in 10.0 mi ENE 10.4 mph - N/A   Clear
9:53 PM 64.9 °F 55.0 °F 70% 29.74 in 10.0 mi ESE 5.8 mph - N/A   Clear
10:00 PM 64.4 °F 55.4 °F 73% 29.94 in 10.0 mi Calm Calm - N/A Thunderstorm Clear
10:53 PM 63.0 °F 55.0 °F 75% 29.72 in 7.0 mi ESE 15.0 mph - 0.06 in Rain , Thunderstorm Rain
11:08 PM 62.6 °F 57.2 °F 82% 29.94 in 10.0 mi SSE 11.5 mph - 0.00 in Thunderstorm Mostly Cloudy
11:15 PM 60.8 °F 55.4 °F 82% 29.94 in 10.0 mi SSE 13.8 mph - 0.00 in   Mostly Cloudy
11:53 PM 64.0 °F 57.9 °F 80% 29.70 in 10.0 mi East 6.9 mph - 0.00 in   Mostly Cloudy